Regional Weather Roundup
Issued by NWS Portland, ME

Current Version | Previous Version | Text Only | Print | Product List | Glossary Off
Versions: 1 2 3 4 5 6 7 8 9 10 11 12 13 14 15 16 17 18 19 20 21 22 23 24 25 26 27 28 29 30 31 32 33 34 35 36 37 38 39 40 41 42 43 44 45 46 47 48 49 50
000 ASUS41 KGYX 192210 RWRGYX WEATHER ROUNDUP FOR MAINE AND NEW HAMPSHIRE NATIONAL WEATHER SERVICE GRAY ME 600 PM EDT SUN AUG 19 2018 MEZ002-005-006-010-012-015-018-020-021-024-026-027-029-192300- MAINE CITY SKY/WX TMP DP RH WIND PRES REMARKS PORTLAND FAIR 70 59 68 E9 30.09R SANFORD FAIR 71 59 65 E6 30.10R BAR HARBOR CLOUDY 71 59 65 E5 30.09R WISCASSET FAIR 76 56 49 E5 30.09R ROCKLAND FAIR 68 60 75 E7 30.09R FRYEBURG FAIR 76 56 49 E5 30.10R LEWISTONAUBURN FAIR 73 55 53 NE6 30.09R AUGUSTA FAIR 75 54 47 NE9 30.10R WATERVILLE FAIR 74 55 51 VRB3 30.08R BANGOR PTSUNNY 75 55 49 NE6 30.09R GREENVILLE NOT AVBL MILLINOCKET FAIR 72 55 55 E6 30.13R HOULTON FAIR 71 56 58 E3 30.11R PRESQUE ISLE FAIR 71 55 56 CALM 30.13S FRENCHVILLE FAIR 72 52 49 CALM 30.13R CARIBOU FAIR 73 51 46 E3 30.12R $$ NHZ002-005-008-009-011-012-014-192300- NEW HAMPSHIRE CITY SKY/WX TMP DP RH WIND PRES REMARKS PORTSMOUTH MOSUNNY 69 58 68 E10 30.08R ROCHESTER FAIR 70 59 68 E10 30.09R NASHUA FAIR 71 61 70 E12 30.10R MANCHESTER PTSUNNY 71 59 65 E12G20 30.07R CONCORD FAIR 72 61 68 VRB7 30.08R LACONIA FAIR 73 57 57 E7 30.08R PLYMOUTH FAIR 76 54 46 E3 30.07R BERLIN FAIR 74 56 53 SE6 30.10R WHITEFIELD FAIR 74 56 53 E6 30.09R JAFFREY FAIR 72 58 61 CALM 30.10R KEENE FAIR N/A N/A N/A CALM 30.07R LEBANON FAIR 77 57 50 CALM 30.07R MT WASHINGTON MOSUNNY 50 36 57 NE7 N/A $$ VTZ005-007-008-192300- VERMONT CITY SKY/WX TMP DP RH WIND PRES REMARKS ST JOHNSBURY N/A 77 55 46 MISG 30.05R MONTPELIER CLOUDY 76 56 49 CALM 30.12R BURLINGTON PTSUNNY 80 59 48 NW6 30.05R $$ MAZ007-012-024-CTZ003-RIZ002-NYZ038-NYZ072-192300- SOUTHERN NEW ENGLAND AND NY CITY SKY/WX TMP DP RH WIND PRES REMARKS BOSTON PTSUNNY 70 60 70 NE15 30.07S WORCESTER FAIR 67 56 67 E12 30.09R NANTUCKET CLOUDY 68 65 90 N18 29.99S PROVIDENCE PTSUNNY 72 58 61 NE18G26 30.06R HARTFORD PTSUNNY 74 54 49 NE9 30.05R ALBANY PTSUNNY 78 55 44 SE5 30.05R NEW YORK CITY CLOUDY 73 64 73 NE8 30.02R $$ ANZ081-ANZ082-ANZ150-NHZ014-MEZ023>029-192300- COASTAL MARINE OBSERVATIONS STATION/POSITION TIME TEMP WIND PRES WAVE AIR SEA DIR/SP/G HT/PER (UTC) (F) (DEG/KT/KT) (MB) (FT/S) MOUNT DESERT ROC 2200 62 30/ 18/ 19 1018.4R MATINICUS ROCK 2100 62 70/ 19/ 20 1017.7F ISLE OF SHOALS 2100 67 80/ 12/ 14 1017.8R JEFFREYS LEDGE 2136 69 N/A 6/ 6 $$ .............KEY.............. WCI - WIND CHILL TC - TEMPERATURE IN CELSIUS VSB - VISIBILITY IN MILES HX - HEAT INDEX FAIR- INDICATES FEW OR NO CLOUDS BELOW 12,000 FT, WITH NO SIGNIFICANT WEATHER AND/OR OBSTRUCTIONS TO VISIBILITY.

USA.gov is the U.S. government's official web portal to all federal, state and local government web resources and services.